Tracking 28081 objects as of 26-Sep-2023
HD Live streaming from Space Station
objects crossing your sky now

STARLINK-2598

Track STARLINK-2598 now!
10-day predictions
STARLINK-2598 is classified as:


NORAD ID: 48385
Int'l Code: 2021-038AJ
Perigee: 553.7 km
Apogee: 555.1 km
Inclination: 53.1 °
Period: 95.6 minutes
Semi major axis: 6925 km
RCS: Unknown
Launch date: May 4, 2021
Source: United States (US)
Launch site: AIR FORCE EASTERN TEST RANGE (AFETR)
Your satellite tracking list
Your tracking list is empty




NASA's NSSDC Master Catalog

Two Line Element Set (TLE):
1 48385U 21038AJ  23268.69873232  .00031074  00000-0  20971-2 0  9999
2 48385  53.0559  53.8787 0001016  78.6079 281.5025 15.06377285132700
Source of the keplerian elements: AFSPC